DELTA 1 DEB

Satellite information

Favourite Embed

Satellite Type and Status

DEBRISIN ORBIT

Key statistics

Satellite DELTA 1 DEB at a glance.

Uptime

21681

Days in orbit

Revolutions

≈ 12.6

Per day

Orbit

SSO

Sun Synchronous Orbit

Inclination

101.7

Latest

Satellite identification and parameters

Extended collection of information and parameters for DELTA 1 DEB.

Object identification

Identified? True

Debris? True

Object name: DELTA 1 DEB

International designator: 1966-016E

Object number (NORAD): 6214

Object ID (CCSDS): 6214

Country: UNITED STATES OF AMERICA (US)

Current information (Y/N): Y

RCS size: SMALL

Orbital parameters

Period: 114.041 minutes

Inclination: 101.739 deg

SMA: 7789.933 km

Apoapsis: 1505.828 km

Periapsis: 1317.768 km

RAAN: 180.4715 deg

Eccentricy: 0.0120707

Argument of periapsis: 118.2327 deg

Mean anomaly: 5.2084 deg

Mean motion: 12.62705832 rev/day

Mean motion (dot): 0.00000127 rev/day2

B* drag term: 0.00093343 1/REarth

Two-line elements (TLE)

Creation date: July 7, 2025, 6:34 p.m.

Reference frame: TEME

Reference center: EARTH

Epoch: July 7, 2025, 12:14 p.m. UTC

TLE line 0: 0 DELTA 1 DEB

TLE line 1: 1 06214U 66016E 25188.51032481 .00000127 00000-0 93343-3 0 9995

TLE line 2: 2 06214 101.7390 180.4715 0120707 118.2327 5.2084 12.62705832731414

Live tracking on map

Real-time ground track for satellite DELTA 1 DEB.

In-orbit conjunctions

A list of the most updated potential collisions computed for object DELTA 1 DEB.

Target Orbit TCA Probability of collision Miss distance Type
COSMOS 532 LEO 2024-05-27 06:20:20 0.0003055186 382.0 (m) PAYLOAD

Associated space launch

The ESSA series was the second generation of US meterological satellites after the TIROS (Television & Infra-Red Observation Satellite) series. They were also called OT (Operational TIROS), TOS (TIROS Operational Satellite).

DELTA 1 DEB was lifted into orbit during the mission ‘Thor Delta E | ESSA 2’, on board a Thor Delta E space rocket.

The launch took place on Feb. 28, 1966, 1:58 p.m. from Space Launch Complex 17B.

For more information about the launch, click the button.

Launch to space Thor Delta E | ESSA 2
Thor Delta E | ESSA 2

Agency: N/A

Status: Launch Successful

Launch date: Feb. 28, 1966, 1:58 p.m. UTC

Rocket: Thor Delta E

Launch pad: Space Launch Complex 17B

Location: Cape Canaveral SFS, FL, USA

...

Latest news about this satellite

There are no fresh news available about this satellite. Check back as we update our databases every day.


Newsletter sign-up

Weekly statistics, charts and insights to help you stay on top of the space industry.